Time,TemperatureF,DewpointF,PressureIn,WindDirection,WindDirectionDegrees,WindSpeedMPH,WindSpeedGustMPH,Humidity,HourlyPrecipIn,Conditions,Clouds,dailyrainin,SoftwareType,DateUTC
2013-06-08 00:02:00,58.0,51.0,29.88,NNE,19,0.0,0.0,77,0.00,,,0.00,,2013-06-08 05:02:00,
2013-06-08 00:12:00,58.0,51.0,29.88,NNE,19,0.0,0.0,77,0.00,,,0.00,,2013-06-08 05:12:00,
2013-06-08 00:22:00,58.0,50.0,29.88,NNE,19,0.0,0.0,76,0.00,,,0.00,,2013-06-08 05:22:00,
2013-06-08 00:32:00,58.0,51.0,29.88,NNE,19,0.0,0.0,78,0.00,,,0.00,,2013-06-08 05:32:00,
2013-06-08 00:42:00,58.0,51.0,29.88,NNE,19,0.0,0.0,78,0.00,,,0.00,,2013-06-08 05:42:00,
2013-06-08 00:52:00,58.0,52.0,29.88,NNE,19,0.0,0.0,80,0.00,,,0.00,,2013-06-08 05:52:00,
2013-06-08 01:02:00,57.0,51.0,29.88,NNE,19,0.0,0.0,81,0.00,,,0.00,,2013-06-08 06:02:00,
2013-06-08 01:12:00,57.0,51.0,29.88,NNE,19,0.0,0.0,81,0.00,,,0.00,,2013-06-08 06:12:00,
2013-06-08 01:22:00,57.0,52.0,29.88,NNE,19,0.0,0.0,82,0.00,,,0.00,,2013-06-08 06:22:00,
2013-06-08 01:32:00,57.0,52.0,29.87,NNE,19,0.0,0.0,84,0.00,,,0.00,,2013-06-08 06:32:00,
2013-06-08 01:42:00,57.0,52.0,29.87,NNE,19,0.0,0.0,84,0.00,,,0.00,,2013-06-08 06:42:00,
2013-06-08 01:52:00,56.0,52.0,29.87,NNE,19,0.0,0.0,85,0.00,,,0.00,,2013-06-08 06:52:00,
2013-06-08 02:02:00,56.0,52.0,29.87,NNE,19,0.0,0.0,85,0.00,,,0.00,,2013-06-08 07:02:00,
2013-06-08 02:12:00,56.0,52.0,29.87,NNE,19,0.0,0.0,85,0.00,,,0.00,,2013-06-08 07:12:00,
2013-06-08 02:22:00,56.0,52.0,29.88,NNE,19,0.0,0.0,86,0.00,,,0.00,,2013-06-08 07:22:00,
2013-06-08 02:32:00,55.0,51.0,29.88,NNE,19,0.0,0.0,86,0.00,,,0.00,,2013-06-08 07:32:00,
2013-06-08 02:42:00,55.0,51.0,29.88,NNE,19,0.0,0.0,86,0.00,,,0.00,,2013-06-08 07:42:00,
2013-06-08 02:52:00,55.0,51.0,29.87,NNE,19,0.0,0.0,87,0.00,,,0.00,,2013-06-08 07:52:00,
2013-06-08 03:02:00,55.0,51.0,29.88,NNE,19,0.0,0.0,87,0.00,,,0.00,,2013-06-08 08:02:00,
2013-06-08 03:12:00,55.0,51.0,29.88,NNE,19,0.0,0.0,87,0.00,,,0.00,,2013-06-08 08:12:00,
2013-06-08 03:22:00,55.0,52.0,29.88,NNE,19,0.0,0.0,88,0.00,,,0.00,,2013-06-08 08:22:00,
2013-06-08 03:32:00,54.0,51.0,29.88,NNE,19,0.0,0.0,89,0.00,,,0.00,,2013-06-08 08:32:00,
2013-06-08 03:42:00,54.0,51.0,29.88,NNE,19,0.0,0.0,89,0.00,,,0.00,,2013-06-08 08:42:00,
2013-06-08 03:53:00,54.0,51.0,29.88,NNE,19,0.0,0.0,89,0.00,,,0.00,,2013-06-08 08:53:00,
2013-06-08 04:02:00,54.0,51.0,29.88,NNE,19,0.0,0.0,89,0.00,,,0.00,,2013-06-08 09:02:00,
2013-06-08 04:12:00,54.0,51.0,29.88,NNE,19,0.0,0.0,89,0.00,,,0.00,,2013-06-08 09:12:00,
2013-06-08 04:22:00,54.0,51.0,29.87,NNE,19,0.0,0.0,89,0.00,,,0.00,,2013-06-08 09:22:00,
2013-06-08 04:33:00,54.0,51.0,29.87,NNE,19,0.0,0.0,89,0.00,,,0.00,,2013-06-08 09:33:00,
2013-06-08 04:43:00,54.0,51.0,29.87,NNE,19,0.0,0.0,89,0.00,,,0.00,,2013-06-08 09:43:00,
2013-06-08 04:53:00,54.0,51.0,29.87,NNE,19,0.0,0.0,90,0.00,,,0.00,,2013-06-08 09:53:00,
2013-06-08 05:02:00,54.0,51.0,29.87,NNE,19,0.0,0.0,90,0.00,,,0.00,,2013-06-08 10:02:00,
2013-06-08 05:12:00,54.0,51.0,29.87,NNE,19,0.0,0.0,90,0.00,,,0.00,,2013-06-08 10:12:00,
2013-06-08 05:22:00,54.0,51.0,29.88,NNE,19,0.0,0.0,90,0.00,,,0.00,,2013-06-08 10:22:00,
2013-06-08 05:33:00,54.0,51.0,29.88,NNE,19,0.0,0.0,90,0.00,,,0.00,,2013-06-08 10:33:00,
2013-06-08 05:42:00,54.0,51.0,29.88,NNE,19,0.0,0.0,90,0.00,,,0.00,,2013-06-08 10:42:00,
2013-06-08 05:52:00,54.0,51.0,29.88,NNE,19,0.0,0.0,90,0.00,,,0.00,,2013-06-08 10:52:00,
2013-06-08 06:02:00,54.0,51.0,29.88,NNE,19,0.0,0.0,90,0.00,,,0.00,,2013-06-08 11:02:00,
2013-06-08 06:12:00,54.0,51.0,29.88,NNE,19,0.0,0.0,90,0.00,,,0.00,,2013-06-08 11:12:00,
2013-06-08 06:22:00,54.0,51.0,29.88,NNE,19,0.0,0.0,90,0.00,,,0.00,,2013-06-08 11:22:00,
2013-06-08 06:32:00,54.0,51.0,29.88,NNE,19,0.0,0.0,91,0.00,,,0.00,,2013-06-08 11:32:00,
2013-06-08 06:42:00,54.0,51.0,29.88,NNE,19,0.0,0.0,91,0.00,,,0.00,,2013-06-08 11:42:00,
2013-06-08 06:52:00,54.0,51.0,29.88,NNE,19,0.0,0.0,90,0.00,,,0.00,,2013-06-08 11:52:00,
2013-06-08 07:02:00,54.0,51.0,29.88,NNE,19,0.0,0.0,90,0.00,,,0.00,,2013-06-08 12:02:00,
2013-06-08 07:12:00,54.0,51.0,29.88,NNE,19,0.0,0.0,90,0.00,,,0.00,,2013-06-08 12:12:00,
2013-06-08 07:22:00,54.0,51.0,29.88,NNE,19,0.0,0.0,90,0.00,,,0.00,,2013-06-08 12:22:00,
2013-06-08 07:32:00,55.0,52.0,29.88,NNE,22,0.0,1.0,90,0.00,,,0.00,,2013-06-08 12:32:00,
2013-06-08 07:42:00,55.0,52.0,29.88,NNE,22,0.0,1.0,90,0.00,,,0.00,,2013-06-08 12:42:00,
2013-06-08 07:52:00,56.0,52.0,29.88,NNE,22,0.0,0.0,88,0.00,,,0.00,,2013-06-08 12:52:00,
2013-06-08 08:02:00,56.0,52.0,29.89,SE,139,0.0,0.0,87,0.00,,,0.00,,2013-06-08 13:02:00,
2013-06-08 08:12:00,56.0,52.0,29.89,SE,139,0.0,0.0,87,0.00,,,0.00,,2013-06-08 13:12:00,
2013-06-08 08:22:00,57.0,53.0,29.89,ESE,118,0.0,1.0,87,0.00,,,0.00,,2013-06-08 13:22:00,
2013-06-08 08:32:00,58.0,53.0,29.90,SSE,155,0.0,1.0,84,0.00,,,0.00,,2013-06-08 13:32:00,
2013-06-08 08:42:00,58.0,53.0,29.90,SSE,155,0.0,1.0,84,0.00,,,0.00,,2013-06-08 13:42:00,
2013-06-08 08:52:00,59.0,54.0,29.90,SSE,156,0.0,0.0,84,0.00,,,0.00,,2013-06-08 13:52:00,
2013-06-08 09:02:00,60.0,54.0,29.90,SSE,156,0.0,0.0,82,0.00,,,0.00,,2013-06-08 14:02:00,
2013-06-08 09:12:00,60.0,54.0,29.90,SSE,156,0.0,0.0,82,0.00,,,0.00,,2013-06-08 14:12:00,
2013-06-08 09:22:00,61.0,54.0,29.90,South,188,0.0,1.0,78,0.00,,,0.00,,2013-06-08 14:22:00,
2013-06-08 09:32:00,63.0,55.0,29.91,SSW,209,0.0,1.0,75,0.00,,,0.00,,2013-06-08 14:32:00,
2013-06-08 09:42:00,63.0,55.0,29.91,SSW,209,0.0,1.0,75,0.00,,,0.00,,2013-06-08 14:42:00,
2013-06-08 09:52:00,64.0,55.0,29.91,West,281,0.0,1.0,72,0.00,,,0.00,,2013-06-08 14:52:00,
2013-06-08 10:02:00,65.0,55.0,29.90,SSE,148,0.0,1.0,71,0.00,,,0.00,,2013-06-08 15:02:00,
2013-06-08 10:12:00,65.0,55.0,29.90,SSE,148,0.0,1.0,71,0.00,,,0.00,,2013-06-08 15:12:00,
2013-06-08 10:22:00,66.0,54.0,29.90,NNW,347,1.0,2.0,66,0.00,,,0.00,,2013-06-08 15:22:00,
2013-06-08 10:32:00,67.0,54.0,29.90,SSE,155,1.0,5.0,63,0.00,,,0.00,,2013-06-08 15:32:00,
2013-06-08 10:42:00,67.0,54.0,29.90,SSE,155,1.0,5.0,63,0.00,,,0.00,,2013-06-08 15:42:00,
2013-06-08 10:53:00,69.0,55.0,29.91,ENE,59,0.0,1.0,61,0.00,,,0.00,,2013-06-08 15:53:00,
2013-06-08 11:03:00,71.0,55.0,29.91,SW,236,1.0,6.0,57,0.00,,,0.00,,2013-06-08 16:03:00,
2013-06-08 11:12:00,71.0,55.0,29.91,SW,236,1.0,6.0,57,0.00,,,0.00,,2013-06-08 16:12:00,
2013-06-08 11:23:00,70.0,54.0,29.91,ENE,74,0.0,2.0,56,0.00,,,0.00,,2013-06-08 16:23:00,
2013-06-08 11:32:00,71.0,54.0,29.91,SE,124,1.0,3.0,56,0.00,,,0.00,,2013-06-08 16:32:00,
2013-06-08 11:42:00,71.0,54.0,29.91,SE,124,1.0,3.0,56,0.00,,,0.00,,2013-06-08 16:42:00,
2013-06-08 11:53:00,71.0,54.0,29.91,ENE,76,0.0,2.0,56,0.00,,,0.00,,2013-06-08 16:53:00,
2013-06-08 12:02:00,72.0,55.0,29.90,SSE,150,0.0,2.0,55,0.00,,,0.00,,2013-06-08 17:02:00,
2013-06-08 12:12:00,72.0,55.0,29.90,SSE,150,0.0,2.0,55,0.00,,,0.00,,2013-06-08 17:12:00,
2013-06-08 12:22:00,73.0,55.0,29.90,WNW,287,0.0,3.0,53,0.00,,,0.00,,2013-06-08 17:22:00,
2013-06-08 12:32:00,71.0,54.0,29.90,ESE,115,0.0,3.0,54,0.00,,,0.00,,2013-06-08 17:32:00,
2013-06-08 12:42:00,71.0,54.0,29.90,ESE,115,0.0,3.0,54,0.00,,,0.00,,2013-06-08 17:42:00,
2013-06-08 12:52:00,71.0,55.0,29.89,SE,142,0.0,2.0,57,0.00,,,0.00,,2013-06-08 17:52:00,
2013-06-08 13:02:00,71.0,54.0,29.89,SE,142,0.0,3.0,54,0.00,,,0.00,,2013-06-08 18:02:00,
2013-06-08 13:12:00,71.0,54.0,29.89,SE,142,0.0,3.0,54,0.00,,,0.00,,2013-06-08 18:12:00,
2013-06-08 13:22:00,71.0,54.0,29.89,ESE,112,0.0,6.0,54,0.00,,,0.00,,2013-06-08 18:22:00,
2013-06-08 13:32:00,70.0,54.0,29.88,WSW,242,1.0,3.0,56,0.00,,,0.00,,2013-06-08 18:32:00,
2013-06-08 13:42:00,70.0,54.0,29.88,WSW,242,1.0,3.0,56,0.00,,,0.00,,2013-06-08 18:42:00,
2013-06-08 13:52:00,70.0,54.0,29.88,ESE,120,0.0,2.0,57,0.00,,,0.00,,2013-06-08 18:52:00,
2013-06-08 14:02:00,70.0,54.0,29.89,SW,221,0.0,1.0,57,0.00,,,0.00,,2013-06-08 19:02:00,
2013-06-08 14:12:00,70.0,54.0,29.89,SW,221,0.0,1.0,57,0.00,,,0.00,,2013-06-08 19:12:00,
2013-06-08 14:22:00,71.0,54.0,29.88,SE,126,0.0,3.0,55,0.00,,,0.00,,2013-06-08 19:22:00,
2013-06-08 14:32:00,71.0,54.0,29.88,ENE,65,1.0,3.0,54,0.00,,,0.00,,2013-06-08 19:32:00,
2013-06-08 14:42:00,71.0,54.0,29.88,ENE,65,1.0,3.0,54,0.00,,,0.00,,2013-06-08 19:42:00,
2013-06-08 14:53:00,71.0,54.0,29.89,ESE,105,0.0,3.0,55,0.00,,,0.00,,2013-06-08 19:53:00,
2013-06-08 15:02:00,71.0,54.0,29.89,SSE,155,0.0,2.0,55,0.00,,,0.00,,2013-06-08 20:02:00,
2013-06-08 15:12:00,71.0,54.0,29.89,SSE,155,0.0,2.0,55,0.00,,,0.00,,2013-06-08 20:12:00,
2013-06-08 15:22:00,71.0,55.0,29.89,SE,145,1.0,3.0,57,0.00,,,0.00,,2013-06-08 20:22:00,
2013-06-08 15:32:00,71.0,54.0,29.89,WSW,253,1.0,3.0,56,0.00,,,0.00,,2013-06-08 20:32:00,
2013-06-08 15:42:00,71.0,54.0,29.89,WSW,253,1.0,3.0,56,0.00,,,0.00,,2013-06-08 20:42:00,
2013-06-08 15:52:00,71.0,55.0,29.89,SE,137,0.0,3.0,57,0.00,,,0.00,,2013-06-08 20:52:00,
2013-06-08 16:02:00,71.0,54.0,29.88,NE,51,0.0,2.0,56,0.00,,,0.00,,2013-06-08 21:02:00,
2013-06-08 16:12:00,71.0,54.0,29.88,NE,51,0.0,2.0,56,0.00,,,0.00,,2013-06-08 21:12:00,
2013-06-08 16:22:00,71.0,54.0,29.89,West,262,0.0,2.0,56,0.00,,,0.00,,2013-06-08 21:22:00,
2013-06-08 16:33:00,71.0,55.0,29.89,West,275,0.0,1.0,57,0.00,,,0.00,,2013-06-08 21:33:00,
2013-06-08 16:43:00,71.0,55.0,29.89,West,275,0.0,1.0,57,0.00,,,0.00,,2013-06-08 21:43:00,
2013-06-08 16:53:00,71.0,54.0,29.89,ENE,65,0.0,2.0,55,0.00,,,0.00,,2013-06-08 21:53:00,
2013-06-08 17:02:00,71.0,54.0,29.90,East,84,0.0,2.0,55,0.00,,,0.00,,2013-06-08 22:02:00,
2013-06-08 17:12:00,71.0,55.0,29.89,ENE,64,0.0,2.0,57,0.00,,,0.00,,2013-06-08 22:12:00,
2013-06-08 17:22:00,71.0,55.0,29.89,ENE,64,0.0,2.0,57,0.00,,,0.00,,2013-06-08 22:22:00,
2013-06-08 17:33:00,71.0,55.0,29.90,SE,134,0.0,1.0,58,0.00,,,0.00,,2013-06-08 22:33:00,
2013-06-08 17:42:00,71.0,55.0,29.90,SSE,153,0.0,3.0,57,0.00,,,0.00,,2013-06-08 22:42:00,
2013-06-08 17:52:00,71.0,55.0,29.90,SSE,153,0.0,3.0,57,0.00,,,0.00,,2013-06-08 22:52:00,
2013-06-08 18:02:00,70.0,54.0,29.90,SSE,158,0.0,1.0,57,0.00,,,0.00,,2013-06-08 23:02:00,
2013-06-08 18:12:00,69.0,54.0,29.90,SW,233,0.0,2.0,58,0.00,,,0.00,,2013-06-08 23:12:00,
2013-06-08 18:22:00,69.0,54.0,29.90,SW,233,0.0,2.0,58,0.00,,,0.00,,2013-06-08 23:22:00,
2013-06-08 18:32:00,69.0,53.0,29.90,South,181,0.0,3.0,57,0.00,,,0.00,,2013-06-08 23:32:00,
2013-06-08 18:42:00,69.0,53.0,29.90,South,181,0.0,3.0,57,0.00,,,0.00,,2013-06-08 23:42:00,
2013-06-08 18:52:00,69.0,54.0,29.90,SSE,147,0.0,2.0,59,0.00,,,0.00,,2013-06-08 23:52:00,
2013-06-08 19:02:00,68.0,54.0,29.90,East,92,0.0,1.0,61,0.00,,,0.00,,2013-06-09 00:02:00,
2013-06-08 19:12:00,68.0,54.0,29.90,East,92,0.0,1.0,61,0.00,,,0.00,,2013-06-09 00:12:00,
2013-06-08 19:22:00,67.0,54.0,29.90,SW,231,0.0,1.0,64,0.00,,,0.00,,2013-06-09 00:22:00,
2013-06-08 19:32:00,67.0,55.0,29.90,SE,144,0.0,1.0,65,0.00,,,0.00,,2013-06-09 00:32:00,
2013-06-08 19:42:00,67.0,55.0,29.90,SE,144,0.0,1.0,65,0.00,,,0.00,,2013-06-09 00:42:00,
2013-06-08 19:52:00,66.0,54.0,29.90,SSW,205,0.0,1.0,65,0.00,,,0.00,,2013-06-09 00:52:00,
2013-06-08 20:02:00,66.0,54.0,29.90,SE,139,0.0,1.0,65,0.00,,,0.00,,2013-06-09 01:02:00,
2013-06-08 20:12:00,65.0,52.0,29.90,ESE,109,0.0,2.0,63,0.00,,,0.00,,2013-06-09 01:12:00,
2013-06-08 20:22:00,65.0,52.0,29.90,ESE,109,0.0,2.0,63,0.00,,,0.00,,2013-06-09 01:22:00,
2013-06-08 20:32:00,65.0,53.0,29.90,ESE,109,0.0,0.0,65,0.00,,,0.00,,2013-06-09 01:32:00,
2013-06-08 20:42:00,65.0,53.0,29.90,ESE,109,0.0,0.0,65,0.00,,,0.00,,2013-06-09 01:42:00,
2013-06-08 20:52:00,64.0,53.0,29.90,ESE,109,0.0,0.0,67,0.00,,,0.00,,2013-06-09 01:52:00,
2013-06-08 21:02:00,63.0,53.0,29.90,ESE,109,0.0,0.0,69,0.00,,,0.00,,2013-06-09 02:02:00,
2013-06-08 21:12:00,63.0,53.0,29.90,ESE,109,0.0,0.0,69,0.00,,,0.00,,2013-06-09 02:12:00,
2013-06-08 21:22:00,62.0,53.0,29.90,ESE,109,0.0,0.0,72,0.00,,,0.00,,2013-06-09 02:22:00,
2013-06-08 21:32:00,61.0,52.0,29.90,ESE,109,0.0,0.0,72,0.00,,,0.00,,2013-06-09 02:32:00,
2013-06-08 21:42:00,61.0,52.0,29.90,ESE,109,0.0,0.0,72,0.00,,,0.00,,2013-06-09 02:42:00,
2013-06-08 21:52:00,61.0,52.0,29.91,ESE,109,0.0,0.0,72,0.00,,,0.00,,2013-06-09 02:52:00,
2013-06-08 22:02:00,60.0,52.0,29.91,ESE,109,0.0,0.0,74,0.00,,,0.00,,2013-06-09 03:02:00,
2013-06-08 22:12:00,60.0,52.0,29.91,ESE,109,0.0,0.0,74,0.00,,,0.00,,2013-06-09 03:12:00,
2013-06-08 22:22:00,59.0,52.0,29.91,ESE,109,0.0,0.0,78,0.00,,,0.00,,2013-06-09 03:22:00,
2013-06-08 22:33:00,59.0,52.0,29.91,WNW,283,0.0,2.0,79,0.00,,,0.00,,2013-06-09 03:33:00,
2013-06-08 22:43:00,59.0,52.0,29.91,WNW,283,0.0,2.0,79,0.00,,,0.00,,2013-06-09 03:43:00,
2013-06-08 22:53:00,58.0,52.0,29.91,WNW,284,0.0,0.0,80,0.00,,,0.00,,2013-06-09 03:53:00,
2013-06-08 23:02:00,58.0,52.0,29.91,WNW,284,0.0,0.0,80,0.00,,,0.00,,2013-06-09 04:02:00,
2013-06-08 23:12:00,58.0,52.0,29.91,WNW,284,0.0,0.0,80,0.00,,,0.00,,2013-06-09 04:12:00,
2013-06-08 23:22:00,57.0,51.0,29.91,WNW,284,0.0,0.0,81,0.00,,,0.00,,2013-06-09 04:22:00,
2013-06-08 23:32:00,57.0,52.0,29.91,WNW,284,0.0,0.0,82,0.00,,,0.00,,2013-06-09 04:32:00,
2013-06-08 23:42:00,57.0,52.0,29.91,WNW,284,0.0,0.0,82,0.00,,,0.00,,2013-06-09 04:42:00,
2013-06-08 23:52:00,57.0,52.0,29.91,WNW,284,0.0,0.0,82,0.00,,,0.00,,2013-06-09 04:52:00,